Regional Weather Roundup
Issued by NWS

Home | Current Version | Previous Version | Graphics & Text | Print | Product List | Glossary On
Versions: 1 2 3 4 5 6 7 8 9 10 11 12 13 14 15 16 17 18 19 20 21 22 23 24 25 26 27
000
ASUS45 KBOU 252007
RWRCO

WEATHER ROUNDUP FOR COLORADO
NATIONAL WEATHER SERVICE DENVER/BOULDER CO
200 PM MDT MON JUL 25 2016

NOTE: "FAIR" INDICATES FEW OR NO CLOUDS BELOW 12000 FEET WITH NO
SIGNIFICANT WEATHER AND/OR OBSTRUCTIONS TO VISIBILITY.

COZ001>005-013-030-031-252100-
...NORTHWEST COLORADO...

CITY           SKY/WX    TMP DP  RH WIND       PRES   REMARKS
CRAIG          FAIR      93  24   8 VRB7      30.23F
HAYDEN         FAIR      88  28  11 NW13      30.27F
MEEKER         FAIR      90  39  16 SW10      30.24F
MOUNT WERNER   NOT AVBL
STEAMBOAT SPGS FAIR      86  33  14 S5        30.29F
WALDEN         FAIR      82  19   9 W12G28    30.40F
$$

COZ006>008-011-252100-
...WEST CENTRAL VALLEYS...

CITY           SKY/WX    TMP DP  RH WIND       PRES   REMARKS
GRAND JUNCTION FAIR      94  41  16 VRB7      30.11F
MONTROSE       FAIR      89  42  19 N5        30.20F
EAGLE          PTSUNNY   82  30  15 SE10G24   30.28F
RIFLE          FAIR      93  40  15 NW6       30.16F
DELTA          FAIR      97  36  12 CALM      30.15F
NUCLA          FAIR     N/A N/A N/A N3        30.25F
$$

COZ017>023-064>068-252100-
...SOUTHWEST COLORADO...

CITY           SKY/WX    TMP DP  RH WIND       PRES   REMARKS
DURANGO        FAIR      87  41  19 VRB5      30.27F
CORTEZ         FAIR      91  47  21 VRB5      30.22F
PAGOSA SPRINGS FAIR      85  32  15 NE8       30.36F
TELLURIDE      CLOUDY    64  41  42 E13G22    30.58R
WOLF CREEK PAS LGT RAIN  52  34  50 E10       30.76F
$$

COZ009-010-012-014-032>034-037-058>063-252100-
...CENTRAL COLORADO...

CITY           SKY/WX    TMP DP  RH WIND       PRES   REMARKS
ASPEN          PTSUNNY   77  43  29 SE12      30.38F
BUENA VISTA    CLOUDY    74  35  24 NW23G33   30.42F
COPPER MTN     PTSUNNY   64  21  19 W3        30.76S
BERTHOUD PASS  FAIR      59  45  58 N17G28    30.79S
COTTONWOOD PAS CLOUDY    72  32  23 CALM      30.58R
GUNNISON       FAIR      81  34  18 N20       30.40F
KREMMLING      FAIR      75  43  31 SE3       30.36F
LEADVILLE      PTSUNNY   63  32  31 E9        30.59R
MONARCH PASS   CLOUDY    61  32  33 MISG      30.84F
SALIDA         PTSUNNY   82  32  16 S6        30.42F
SUNLIGHT       PTSUNNY   68  34  28 CALM      30.67F
WILKERSON PASS CLOUDY    63  28  27 NW3       30.71S
$$

COZ069>075-252100-
...SAN LUIS VALLEY/SANGRE DE CRISTO MOUNTAINS...

CITY           SKY/WX    TMP DP  RH WIND       PRES   REMARKS
ALAMOSA        FAIR      86  41  20 N6        30.34F
LA VETA PASS   FAIR      75  34  22 NE14G22   30.58F
SAGUACHE       FAIR      81  32  17 S5        30.39F
$$

COZ035-036-038>040-252100-
...NORTHERN COLORADO FRONT RANGE...

CITY           SKY/WX    TMP DP  RH WIND       PRES   REMARKS
DENVER INTL AP FAIR      95  53  24 NE9G29    30.14F
DMNS CITY PARK   N/A     91  49  24 E3G13     30.14F
AURORA         MOSUNNY   93  38  14 S2        30.16F
FRONT RANGE AP MOSUNNY   95  48  20 E7G16     30.16F
ERIE MUNI ARPT FAIR      86  56  35 NW8G17    30.15F
BOULDER MUN AP FAIR      82  55  39 NE8       30.17F
CENTENNIAL     PTSUNNY   87  42  20 SW7       30.19S
BROOMFIELD     MOSUNNY   88  52  29 N12       30.21S
LONGMONT       FAIR      87  56  34 E3        30.17F
$$

COZ041-046-047-076>085-087-088-252100-
...PIKES PEAK/PALMER DIVIDE AND SOUTHERN FOOTHILLS...

CITY           SKY/WX    TMP DP  RH WIND       PRES   REMARKS
COLO. SPRINGS  FAIR      86  50  28 S13       30.25F
A. F. ACADEMY  MOSUNNY   86  51  29 SE14      30.25F
SCHRIEVER AFB  NOT AVBL
ELLICOTT       FAIR     N/A N/A N/A S10G20    30.24F
FALCON         NOT AVBL
FORT CARSON    FAIR      85  53  32 S13       30.22F
LIMON          FAIR      86  56  35 S20G28    30.21F
MONUMENT HILL  LGT RAIN  72  37  28 NW22G33   30.32S
TRINIDAD       NOT AVBL
$$

COZ042>045-048>051-090-091-252100-
...NORTHEAST COLORADO...

CITY           SKY/WX    TMP DP  RH WIND       PRES   REMARKS
GREELEY ARPT   FAIR      84  61  45 S7        30.15F
AKRON          FAIR      82  61  48 SE24G32   30.17F
BURLINGTON     FAIR      80  63  55 SE21      30.19F
WRAY           NOT AVBL
STERLING       FAIR      86  63  45 SE18G24   30.12F
HOLYOKE        FAIR      84  63  48 W15G21    30.14F
FORT MORGAN    FAIR      88  58  36 E16G23    30.13F
$$

COZ086-089-092>099-252100-
...SOUTHEAST COLORADO...

CITY           SKY/WX    TMP DP  RH WIND       PRES   REMARKS
PUEBLO         FAIR      93  56  28 SE12G18   30.12F
LA JUNTA       FAIR      89  64  43 E14       30.12F
LAMAR          FAIR      89  62  40 E10G22    30.11F
SPRINGFIELD      N/A     85  63  47 SE10G22   30.17F
$$




USA.gov is the U.S. government's official web portal to all federal, state and local government web resources and services.